Location: B?jaj?g
(11.7167°N, 92.6667°E)
Time: 22:24:49
(UTC+00:00)

Ariane H10 - Pass Details

Date: 18 September 2020
Orbit: 390 x 35046 km, 3.8° (Epoch: 31 October)

Event Time Altitude Azimuth Distance (km) Brightness Sun altitude
Rises 13:00:18 0° 251° (WSW) 2,808 6.6 -18.5°
Reaches altitude 10° 13:01:41 10° 244° (WSW) 2,236 5.8 -18.8°
Maximum altitude 13:06:14 51° 166° (SSE) 1,757 4.1 -19.9°
Enters shadow 13:14:43 27° 105° (ESE) 4,971 6.0 -22.0°
Exits shadow 14:09:20 - 93° (E) 20,869 9.3 -35.2°
Drops below altitude 10° 22:26:23 10° 102° (ESE) 15,039 10.2 -18.5°
Sets 22:36:19 0° 100° (E) 13,598 10.4 -16.1°
